Tracking 19717 objects as of 25-Jun-2019
HD Live streaming from Space Station
objects crossing your sky now

DMSP 5D-2 F11 DEB

Track DMSP 5D-2 F11 DEB now!
10-day predictions


NORAD ID: 28317
Int'l Code: 1991-082AE
Perigee: 758.3 km
Apogee: 942.8 km
Inclination: 98.8 °
Period: 101.8 minutes
Semi major axis: 7221 km
RCS: 0.0133 m2 (small)
Launch date: November 28, 1991
Source: United States (US)
Launch site: AIR FORCE WESTERN TEST RANGE (AFWTR)

Note: This is SATELLITE DEBRIS
aabbcc
Your satellite tracking list
Your tracking list is empty




NASA's NSSDC Master Catalog

Two Line Element Set (TLE):
1 28317U 91082AE  19174.95641029 +.00000104 +00000-0 +70904-4 0  9998
2 28317 098.8019 167.5926 0127741 006.8008 046.5168 14.14681817782141
Source of the keplerian elements: AFSPC